Time,TemperatureF,DewpointF,PressureIn,WindDirection,WindDirectionDegrees,WindSpeedMPH,WindSpeedGustMPH,Humidity,HourlyPrecipIn,Conditions,Clouds,dailyrainin,SoftwareType,DateUTC
2013-01-28 00:00:00,45.9,36.3,30.42,East,101,0.0,4.0,69,0.00,,---,0.00,VWS V14.01,2013-01-28 05:00:00,
2013-01-28 00:02:00,45.9,36.3,30.42,East,97,2.0,4.0,69,0.00,,---,0.00,VWS V14.01,2013-01-28 05:02:00,
2013-01-28 00:03:00,45.9,36.0,30.42,East,97,1.0,4.0,68,0.00,,---,0.00,VWS V14.01,2013-01-28 05:03:00,
2013-01-28 00:08:00,45.8,36.6,30.41,East,101,1.0,1.0,70,0.00,,---,0.00,VWS V14.01,2013-01-28 05:08:00,
2013-01-28 00:13:00,45.7,36.1,30.42,East,82,0.0,4.0,69,0.00,,---,0.00,VWS V14.01,2013-01-28 05:13:00,
2013-01-28 00:18:00,45.6,36.0,30.42,East,82,0.0,4.0,69,0.00,,---,0.00,VWS V14.01,2013-01-28 05:18:00,
2013-01-28 00:23:00,45.4,36.6,30.41,East,82,2.0,4.0,71,0.00,,---,0.00,VWS V14.01,2013-01-28 05:23:00,
2013-01-28 00:28:00,45.1,35.9,30.42,East,82,0.0,4.0,70,0.00,,---,0.00,VWS V14.01,2013-01-28 05:28:00,
2013-01-28 00:33:00,45.1,36.3,30.42,East,82,1.0,4.0,71,0.00,,---,0.00,VWS V14.01,2013-01-28 05:33:00,
2013-01-28 00:38:00,45.0,36.2,30.43,East,82,0.0,2.0,71,0.00,,---,0.00,VWS V14.01,2013-01-28 05:38:00,
2013-01-28 00:43:00,45.0,36.2,30.42,East,82,1.0,2.0,71,0.00,,---,0.00,VWS V14.01,2013-01-28 05:43:00,
2013-01-28 00:48:00,45.0,36.9,30.42,East,82,1.0,2.0,73,0.00,,---,0.00,VWS V14.01,2013-01-28 05:48:00,
2013-01-28 00:53:00,45.0,36.5,30.43,East,82,1.0,2.0,72,0.00,,---,0.00,VWS V14.01,2013-01-28 05:53:00,
2013-01-28 00:58:00,45.0,36.5,30.42,East,82,0.0,2.0,72,0.00,,---,0.00,VWS V14.01,2013-01-28 05:58:00,
2013-01-28 01:03:00,44.8,36.3,30.42,East,82,1.0,2.0,72,0.00,,---,0.00,VWS V14.01,2013-01-28 06:03:00,
2013-01-28 01:08:00,44.7,35.9,30.42,East,82,1.0,2.0,71,0.00,,---,0.00,VWS V14.01,2013-01-28 06:08:00,
2013-01-28 01:13:00,44.6,36.5,30.42,East,88,1.0,3.0,73,0.00,,---,0.00,VWS V14.01,2013-01-28 06:13:00,
2013-01-28 01:18:00,44.5,36.4,30.43,East,89,1.0,3.0,73,0.00,,---,0.00,VWS V14.01,2013-01-28 06:18:00,
2013-01-28 01:23:00,44.6,36.8,30.43,East,89,0.0,3.0,74,0.00,,---,0.00,VWS V14.01,2013-01-28 06:23:00,
2013-01-28 01:28:00,44.5,36.4,30.42,East,94,2.0,4.0,73,0.00,,---,0.00,VWS V14.01,2013-01-28 06:28:00,
2013-01-28 01:33:00,44.7,36.2,30.42,East,95,1.0,4.0,72,0.00,,---,0.00,VWS V14.01,2013-01-28 06:33:00,
2013-01-28 01:38:00,44.7,35.9,30.42,East,95,0.0,2.0,71,0.00,,---,0.00,VWS V14.01,2013-01-28 06:38:00,
2013-01-28 01:43:00,44.5,36.4,30.42,East,95,1.0,2.0,73,0.00,,---,0.00,VWS V14.01,2013-01-28 06:43:00,
2013-01-28 01:48:00,44.3,35.9,30.42,East,95,1.0,2.0,72,0.00,,---,0.00,VWS V14.01,2013-01-28 06:48:00,
2013-01-28 01:53:00,44.3,35.9,30.42,SE,142,0.0,4.0,72,0.00,,---,0.00,VWS V14.01,2013-01-28 06:53:00,
2013-01-28 01:58:00,44.3,35.9,30.42,ESE,105,1.0,4.0,72,0.00,,---,0.00,VWS V14.01,2013-01-28 06:58:00,
2013-01-28 02:03:00,44.4,35.6,30.42,ESE,109,1.0,4.0,71,0.00,,---,0.00,VWS V14.01,2013-01-28 07:03:00,
2013-01-28 02:08:00,44.4,35.6,30.42,ESE,109,2.0,2.0,71,0.00,,---,0.00,VWS V14.01,2013-01-28 07:08:00,
2013-01-28 02:13:00,44.4,36.0,30.42,ESE,108,1.0,3.0,72,0.00,,---,0.00,VWS V14.01,2013-01-28 07:13:00,
2013-01-28 02:18:00,44.4,35.6,30.42,ESE,105,2.0,4.0,71,0.00,,---,0.00,VWS V14.01,2013-01-28 07:18:00,
2013-01-28 02:23:00,44.6,35.8,30.41,East,99,0.0,4.0,71,0.00,,---,0.00,VWS V14.01,2013-01-28 07:23:00,
2013-01-28 02:28:00,44.7,35.2,30.41,ESE,114,5.0,5.0,69,0.00,,---,0.00,VWS V14.01,2013-01-28 07:28:00,
2013-01-28 02:33:00,45.0,35.5,30.42,East,101,2.0,5.0,69,0.00,,---,0.00,VWS V14.01,2013-01-28 07:33:00,
2013-01-28 02:38:00,45.3,35.7,30.42,East,81,2.0,2.0,69,0.00,,---,0.00,VWS V14.01,2013-01-28 07:38:00,
2013-01-28 02:43:00,45.5,35.9,30.41,East,94,0.0,2.0,69,0.00,,---,0.00,VWS V14.01,2013-01-28 07:43:00,
2013-01-28 02:48:00,45.6,35.7,30.41,East,87,1.0,4.0,68,0.00,,---,0.00,VWS V14.01,2013-01-28 07:48:00,
2013-01-28 02:53:00,45.7,35.4,30.41,East,99,2.0,4.0,67,0.00,,---,0.00,VWS V14.01,2013-01-28 07:53:00,
2013-01-28 02:58:00,45.8,35.5,30.41,East,80,1.0,10.0,67,0.00,,---,0.00,VWS V14.01,2013-01-28 07:58:00,
2013-01-28 03:03:00,45.8,35.1,30.42,ENE,63,2.0,10.0,66,0.00,,---,0.00,VWS V14.01,2013-01-28 08:03:00,
2013-01-28 03:08:00,45.7,35.4,30.42,ENE,78,1.0,3.0,67,0.00,,---,0.00,VWS V14.01,2013-01-28 08:08:00,
2013-01-28 03:13:00,45.6,35.3,30.42,ENE,59,4.0,4.0,67,0.00,,---,0.00,VWS V14.01,2013-01-28 08:13:00,
2013-01-28 03:18:00,45.4,35.5,30.42,SSE,152,1.0,6.0,68,0.00,,---,0.00,VWS V14.01,2013-01-28 08:18:00,
2013-01-28 03:23:00,45.3,35.4,30.42,SSE,152,1.0,6.0,68,0.00,,---,0.00,VWS V14.01,2013-01-28 08:23:00,
2013-01-28 03:28:00,45.2,35.7,30.42,SE,140,1.0,6.0,69,0.00,,---,0.00,VWS V14.01,2013-01-28 08:28:00,
2013-01-28 03:33:00,45.2,35.7,30.42,SE,140,0.0,6.0,69,0.00,,---,0.00,VWS V14.01,2013-01-28 08:33:00,
2013-01-28 03:38:00,45.1,35.5,30.42,ESE,103,1.0,2.0,69,0.00,,---,0.00,VWS V14.01,2013-01-28 08:38:00,
2013-01-28 03:43:00,45.2,35.3,30.42,ESE,120,1.0,3.0,68,0.00,,---,0.00,VWS V14.01,2013-01-28 08:43:00,
2013-01-28 03:48:00,45.2,35.3,30.42,ESE,119,0.0,3.0,68,0.00,,---,0.00,VWS V14.01,2013-01-28 08:48:00,
2013-01-28 03:53:00,45.1,35.5,30.42,ESE,118,1.0,3.0,69,0.00,,---,0.00,VWS V14.01,2013-01-28 08:53:00,
2013-01-28 03:58:00,45.0,35.8,30.41,ESE,118,1.0,3.0,70,0.00,,---,0.00,VWS V14.01,2013-01-28 08:58:00,
2013-01-28 04:03:00,44.9,36.4,30.41,ESE,120,0.0,3.0,72,0.00,,---,0.00,VWS V14.01,2013-01-28 09:03:00,
2013-01-28 04:08:00,44.8,35.3,30.42,ESE,120,1.0,2.0,69,0.00,,---,0.00,VWS V14.01,2013-01-28 09:08:00,
2013-01-28 04:13:00,44.7,36.2,30.42,ESE,120,1.0,2.0,72,0.00,,---,0.00,VWS V14.01,2013-01-28 09:13:00,
2013-01-28 04:18:00,44.7,35.5,30.42,ESE,120,0.0,2.0,70,0.00,,---,0.00,VWS V14.01,2013-01-28 09:18:00,
2013-01-28 04:23:00,44.7,35.2,30.42,ESE,120,1.0,2.0,69,0.00,,---,0.00,VWS V14.01,2013-01-28 09:23:00,
2013-01-28 04:28:00,44.8,35.6,30.42,ESE,120,0.0,2.0,70,0.00,,---,0.00,VWS V14.01,2013-01-28 09:28:00,
2013-01-28 04:33:00,44.8,36.7,30.42,ESE,119,1.0,2.0,73,0.00,,---,0.00,VWS V14.01,2013-01-28 09:33:00,
2013-01-28 04:38:00,44.7,35.9,30.42,ESE,119,0.0,1.0,71,0.00,,---,0.00,VWS V14.01,2013-01-28 09:38:00,
2013-01-28 04:43:00,44.7,36.6,30.42,ESE,119,0.0,1.0,73,0.00,,---,0.00,VWS V14.01,2013-01-28 09:43:00,
2013-01-28 04:48:00,44.7,35.9,30.42,ESE,120,0.0,1.0,71,0.00,,---,0.00,VWS V14.01,2013-01-28 09:48:00,
2013-01-28 04:53:00,44.6,36.2,30.42,ESE,120,0.0,1.0,72,0.00,,---,0.00,VWS V14.01,2013-01-28 09:53:00,
2013-01-28 04:58:00,44.6,36.5,30.43,ESE,119,1.0,1.0,73,0.00,,---,0.00,VWS V14.01,2013-01-28 09:58:00,
2013-01-28 05:03:00,44.5,36.4,30.42,ESE,120,1.0,1.0,73,0.00,,---,0.00,VWS V14.01,2013-01-28 10:03:00,
2013-01-28 05:08:00,44.5,36.0,30.42,ESE,119,1.0,1.0,72,0.00,,---,0.00,VWS V14.01,2013-01-28 10:08:00,
2013-01-28 05:13:00,44.4,36.0,30.42,ESE,119,1.0,1.0,72,0.00,,---,0.00,VWS V14.01,2013-01-28 10:13:00,
2013-01-28 05:18:00,44.4,36.7,30.42,ESE,119,1.0,1.0,74,0.00,,---,0.00,VWS V14.01,2013-01-28 10:18:00,
2013-01-28 05:23:00,44.3,36.2,30.42,ESE,120,0.0,1.0,73,0.00,,---,0.00,VWS V14.01,2013-01-28 10:23:00,
2013-01-28 05:28:00,44.3,36.5,30.42,ESE,119,1.0,2.0,74,0.00,,---,0.00,VWS V14.01,2013-01-28 10:28:00,
2013-01-28 05:33:00,44.3,36.2,30.42,ESE,119,1.0,2.0,73,0.00,,---,0.00,VWS V14.01,2013-01-28 10:33:00,
2013-01-28 05:38:00,44.3,36.5,30.42,ESE,119,0.0,1.0,74,0.00,,---,0.00,VWS V14.01,2013-01-28 10:38:00,
2013-01-28 05:43:00,44.3,36.2,30.42,ESE,119,1.0,1.0,73,0.00,,---,0.00,VWS V14.01,2013-01-28 10:43:00,
2013-01-28 05:48:00,44.3,36.5,30.42,ESE,119,0.0,1.0,74,0.00,,---,0.00,VWS V14.01,2013-01-28 10:48:00,
2013-01-28 05:53:00,44.3,36.2,30.42,ESE,119,1.0,2.0,73,0.00,,---,0.00,VWS V14.01,2013-01-28 10:53:00,
2013-01-28 05:58:00,44.4,36.0,30.42,ESE,119,0.0,2.0,72,0.00,,---,0.00,VWS V14.01,2013-01-28 10:58:00,
2013-01-28 06:03:00,44.4,36.7,30.42,ESE,119,0.0,2.0,74,0.00,,---,0.00,VWS V14.01,2013-01-28 11:03:00,
2013-01-28 06:08:00,44.4,36.7,30.42,ESE,119,0.0,1.0,74,0.00,,---,0.00,VWS V14.01,2013-01-28 11:08:00,
2013-01-28 06:13:00,44.3,36.5,30.42,ESE,119,1.0,1.0,74,0.00,,---,0.00,VWS V14.01,2013-01-28 11:13:00,
2013-01-28 06:18:00,44.4,37.0,30.42,ESE,119,0.0,2.0,75,0.00,,---,0.00,VWS V14.01,2013-01-28 11:18:00,
2013-01-28 06:23:00,44.4,36.0,30.42,ESE,119,0.0,2.0,72,0.00,,---,0.00,VWS V14.01,2013-01-28 11:23:00,
2013-01-28 06:28:00,44.4,36.7,30.42,ESE,119,1.0,2.0,74,0.00,,---,0.00,VWS V14.01,2013-01-28 11:28:00,
2013-01-28 06:33:00,44.4,37.0,30.42,ESE,119,0.0,2.0,75,0.00,,---,0.00,VWS V14.01,2013-01-28 11:33:00,
2013-01-28 06:38:00,44.3,36.5,30.43,ESE,119,1.0,1.0,74,0.00,,---,0.00,VWS V14.01,2013-01-28 11:38:00,
2013-01-28 06:43:00,44.3,37.2,30.42,ESE,119,0.0,1.0,76,0.00,,---,0.00,VWS V14.01,2013-01-28 11:43:00,
2013-01-28 06:48:00,44.3,37.6,30.42,ESE,119,0.0,1.0,77,0.00,,---,0.00,VWS V14.01,2013-01-28 11:48:00,
2013-01-28 06:53:00,44.2,36.5,30.42,ESE,119,0.0,1.0,74,0.00,,---,0.00,VWS V14.01,2013-01-28 11:53:00,
2013-01-28 06:58:00,44.2,36.8,30.43,ESE,119,1.0,1.0,75,0.00,,---,0.00,VWS V14.01,2013-01-28 11:58:00,
2013-01-28 07:03:00,44.2,37.1,30.43,ESE,119,1.0,1.0,76,0.00,,---,0.00,VWS V14.01,2013-01-28 12:03:00,
2013-01-28 07:08:00,44.2,36.8,30.42,ESE,119,0.0,2.0,75,0.00,,---,0.00,VWS V14.01,2013-01-28 12:08:00,
2013-01-28 07:13:00,44.2,36.5,30.42,ESE,119,1.0,2.0,74,0.00,,---,0.00,VWS V14.01,2013-01-28 12:13:00,
2013-01-28 07:18:00,44.2,36.8,30.43,ESE,119,0.0,2.0,75,0.00,,---,0.00,VWS V14.01,2013-01-28 12:18:00,
2013-01-28 07:23:00,44.2,35.8,30.43,ESE,119,0.0,2.0,72,0.00,,---,0.00,VWS V14.01,2013-01-28 12:23:00,
2013-01-28 07:28:00,44.3,36.5,30.43,ESE,119,0.0,2.0,74,0.00,,---,0.00,VWS V14.01,2013-01-28 12:28:00,
2013-01-28 07:33:00,44.4,36.3,30.43,ESE,119,1.0,2.0,73,0.00,,---,0.00,VWS V14.01,2013-01-28 12:33:00,
2013-01-28 07:38:00,44.5,36.7,30.43,ESE,119,1.0,1.0,74,0.00,,---,0.00,VWS V14.01,2013-01-28 12:38:00,
2013-01-28 07:43:00,44.6,36.8,30.43,ESE,119,0.0,1.0,74,0.00,,---,0.00,VWS V14.01,2013-01-28 12:43:00,
2013-01-28 07:48:00,44.6,37.5,30.42,ESE,123,0.0,1.0,76,0.00,,---,0.00,VWS V14.01,2013-01-28 12:48:00,
2013-01-28 07:53:00,44.6,35.8,30.43,ESE,123,0.0,1.0,71,0.00,,---,0.00,VWS V14.01,2013-01-28 12:53:00,
2013-01-28 07:58:00,44.8,36.7,30.42,SSW,210,0.0,2.0,73,0.00,,---,0.00,VWS V14.01,2013-01-28 12:58:00,
2013-01-28 08:03:00,44.9,36.8,30.43,SSW,210,0.0,2.0,73,0.00,,---,0.00,VWS V14.01,2013-01-28 13:03:00,
2013-01-28 08:08:00,44.9,36.4,30.43,SSW,210,0.0,1.0,72,0.00,,---,0.00,VWS V14.01,2013-01-28 13:08:00,
2013-01-28 08:13:00,44.9,36.8,30.43,SSW,210,0.0,1.0,73,0.00,,---,0.00,VWS V14.01,2013-01-28 13:13:00,
2013-01-28 08:18:00,45.0,37.2,30.43,SSW,210,0.0,1.0,74,0.00,,---,0.00,VWS V14.01,2013-01-28 13:18:00,
2013-01-28 08:23:00,45.0,36.9,30.42,SSW,210,1.0,2.0,73,0.00,,---,0.00,VWS V14.01,2013-01-28 13:23:00,
2013-01-28 08:28:00,45.1,37.3,30.43,SSW,210,1.0,2.0,74,0.00,,---,0.00,VWS V14.01,2013-01-28 13:28:00,
2013-01-28 08:33:00,45.2,37.4,30.42,SSW,210,0.0,2.0,74,0.00,,---,0.00,VWS V14.01,2013-01-28 13:33:00,
2013-01-28 08:38:00,45.4,37.6,30.43,SSW,207,1.0,2.0,74,0.00,,---,0.00,VWS V14.01,2013-01-28 13:38:00,
2013-01-28 08:43:00,45.5,37.4,30.42,SSW,207,1.0,2.0,73,0.00,,---,0.00,VWS V14.01,2013-01-28 13:43:00,
2013-01-28 08:48:00,45.7,37.5,30.42,SSW,207,1.0,2.0,73,0.00,,---,0.00,VWS V14.01,2013-01-28 13:48:00,
2013-01-28 08:52:00,46.0,37.8,30.42,SSW,207,0.0,2.0,73,0.00,,---,0.00,VWS V14.01,2013-01-28 13:52:00,
2013-01-28 08:57:00,46.2,38.0,30.42,SSW,207,0.0,2.0,73,0.00,,---,0.00,VWS V14.01,2013-01-28 13:57:00,
2013-01-28 09:02:00,46.3,38.1,30.42,SSW,207,0.0,2.0,73,0.00,,---,0.00,VWS V14.01,2013-01-28 14:02:00,
2013-01-28 09:07:00,46.4,38.2,30.42,SSW,207,1.0,1.0,73,0.00,,---,0.00,VWS V14.01,2013-01-28 14:07:00,
2013-01-28 09:12:00,46.5,38.3,30.42,SSW,207,0.0,1.0,73,0.00,,---,0.00,VWS V14.01,2013-01-28 14:12:00,
2013-01-28 09:17:00,46.6,38.1,30.42,SSW,207,0.0,1.0,72,0.00,,---,0.00,VWS V14.01,2013-01-28 14:17:00,
2013-01-28 09:22:00,46.6,38.4,30.42,SSW,207,0.0,1.0,73,0.00,,---,0.00,VWS V14.01,2013-01-28 14:22:00,
2013-01-28 09:27:00,46.7,38.5,30.42,SSW,202,0.0,2.0,73,0.00,,---,0.00,VWS V14.01,2013-01-28 14:27:00,
2013-01-28 09:32:00,46.7,38.5,30.42,South,171,1.0,3.0,73,0.00,,---,0.00,VWS V14.01,2013-01-28 14:32:00,
2013-01-28 09:37:00,46.8,38.6,30.42,NE,44,1.0,2.0,73,0.00,,---,0.00,VWS V14.01,2013-01-28 14:37:00,
2013-01-28 09:42:00,46.9,38.7,30.42,East,84,0.0,3.0,73,0.00,,---,0.00,VWS V14.01,2013-01-28 14:42:00,
2013-01-28 09:47:00,47.0,39.5,30.42,East,88,0.0,3.0,75,0.00,,---,0.00,VWS V14.01,2013-01-28 14:47:00,
2013-01-28 09:52:00,47.1,39.2,30.42,East,88,0.0,3.0,74,0.00,,---,0.00,VWS V14.01,2013-01-28 14:52:00,
2013-01-28 09:57:00,47.3,39.8,30.42,NE,36,1.0,3.0,75,0.00,,---,0.00,VWS V14.01,2013-01-28 14:57:00,
2013-01-28 10:02:00,47.4,39.9,30.42,ENE,64,1.0,3.0,75,0.00,,---,0.00,VWS V14.01,2013-01-28 15:02:00,
2013-01-28 10:07:00,47.5,40.3,30.43,ESE,103,0.0,2.0,76,0.00,,---,0.00,VWS V14.01,2013-01-28 15:07:00,
2013-01-28 10:12:00,47.7,40.5,30.42,SE,132,0.0,2.0,76,0.00,,---,0.00,VWS V14.01,2013-01-28 15:12:00,
2013-01-28 10:17:00,47.8,40.6,30.42,East,98,1.0,2.0,76,0.00,,---,0.00,VWS V14.01,2013-01-28 15:17:00,
2013-01-28 10:22:00,48.0,40.8,30.42,East,98,1.0,2.0,76,0.00,,---,0.00,VWS V14.01,2013-01-28 15:22:00,
2013-01-28 10:27:00,48.2,41.3,30.42,ENE,61,0.0,3.0,77,0.00,,---,0.00,VWS V14.01,2013-01-28 15:27:00,
2013-01-28 10:32:00,48.4,41.5,30.42,NE,52,1.0,3.0,77,0.00,,---,0.00,VWS V14.01,2013-01-28 15:32:00,
2013-01-28 10:37:00,48.5,41.6,30.42,East,101,1.0,2.0,77,0.00,,---,0.00,VWS V14.01,2013-01-28 15:37:00,
2013-01-28 10:42:00,48.6,41.7,30.43,ENE,63,1.0,3.0,77,0.00,,---,0.00,VWS V14.01,2013-01-28 15:42:00,
2013-01-28 10:47:00,48.6,42.1,30.43,ENE,75,2.0,4.0,78,0.00,,---,0.00,VWS V14.01,2013-01-28 15:47:00,
2013-01-28 10:52:00,48.7,41.8,30.42,ENE,64,0.0,4.0,77,0.00,,---,0.00,VWS V14.01,2013-01-28 15:52:00,
2013-01-28 10:57:00,48.9,42.3,30.42,East,88,0.0,4.0,78,0.00,,---,0.00,VWS V14.01,2013-01-28 15:57:00,
2013-01-28 11:02:00,49.2,42.6,30.42,North,5,1.0,4.0,78,0.00,,---,0.00,VWS V14.01,2013-01-28 16:02:00,
2013-01-28 11:07:00,49.5,42.9,30.41,North,360,0.0,1.0,78,0.00,,---,0.00,VWS V14.01,2013-01-28 16:07:00,
2013-01-28 11:12:00,49.8,42.9,30.41,East,80,2.0,3.0,77,0.00,,---,0.00,VWS V14.01,2013-01-28 16:12:00,
2013-01-28 11:17:00,49.9,43.0,30.40,East,80,1.0,3.0,77,0.00,,---,0.00,VWS V14.01,2013-01-28 16:17:00,
2013-01-28 11:22:00,50.0,43.4,30.41,East,99,0.0,4.0,78,0.00,,---,0.00,VWS V14.01,2013-01-28 16:22:00,
2013-01-28 11:27:00,50.0,43.1,30.41,East,96,0.0,4.0,77,0.00,,---,0.00,VWS V14.01,2013-01-28 16:27:00,
2013-01-28 11:32:00,50.2,43.3,30.41,ESE,121,1.0,4.0,77,0.00,,---,0.00,VWS V14.01,2013-01-28 16:32:00,
2013-01-28 11:37:00,50.3,43.4,30.41,East,92,1.0,4.0,77,0.00,,---,0.00,VWS V14.01,2013-01-28 16:37:00,
2013-01-28 11:42:00,50.5,43.9,30.41,East,88,2.0,4.0,78,0.00,,---,0.00,VWS V14.01,2013-01-28 16:42:00,
2013-01-28 11:47:00,50.7,43.8,30.41,ESE,105,1.0,4.0,77,0.00,,---,0.00,VWS V14.01,2013-01-28 16:47:00,
2013-01-28 11:52:00,51.0,44.0,30.41,NW,322,1.0,4.0,77,0.00,,---,0.00,VWS V14.01,2013-01-28 16:52:00,
2013-01-28 11:57:00,51.2,44.2,30.40,North,351,1.0,4.0,77,0.00,,---,0.00,VWS V14.01,2013-01-28 16:57:00,
2013-01-28 12:02:00,51.5,44.5,30.40,NNW,342,1.0,4.0,77,0.00,,---,0.00,VWS V14.01,2013-01-28 17:02:00,
2013-01-28 12:07:00,51.7,44.7,30.40,East,91,2.0,2.0,77,0.00,,---,0.00,VWS V14.01,2013-01-28 17:07:00,
2013-01-28 12:12:00,51.7,44.7,30.39,North,11,0.0,3.0,77,0.00,,---,0.00,VWS V14.01,2013-01-28 17:12:00,
2013-01-28 12:17:00,51.7,44.7,30.40,North,351,0.0,3.0,77,0.00,,---,0.00,VWS V14.01,2013-01-28 17:17:00,
2013-01-28 12:22:00,51.9,44.9,30.39,North,349,1.0,3.0,77,0.00,,---,0.00,VWS V14.01,2013-01-28 17:22:00,
2013-01-28 12:27:00,52.2,45.2,30.39,North,349,0.0,3.0,77,0.00,,---,0.00,VWS V14.01,2013-01-28 17:27:00,
2013-01-28 12:32:00,52.5,45.5,30.38,North,349,0.0,3.0,77,0.00,,---,0.00,VWS V14.01,2013-01-28 17:32:00,
2013-01-28 12:37:00,53.0,46.0,30.38,NNW,348,0.0,1.0,77,0.00,,---,0.00,VWS V14.01,2013-01-28 17:37:00,
2013-01-28 12:42:00,53.5,46.1,30.38,NNE,17,0.0,1.0,76,0.00,,---,0.00,VWS V14.01,2013-01-28 17:42:00,
2013-01-28 12:47:00,53.8,45.7,30.38,ENE,70,1.0,3.0,74,0.00,,---,0.00,VWS V14.01,2013-01-28 17:47:00,
2013-01-28 12:52:00,54.0,46.6,30.37,NE,38,1.0,3.0,76,0.00,,---,0.00,VWS V14.01,2013-01-28 17:52:00,
2013-01-28 12:57:00,54.5,46.8,30.37,SSW,206,1.0,3.0,75,0.00,,---,0.00,VWS V14.01,2013-01-28 17:57:00,
2013-01-28 13:02:00,55.1,47.3,30.36,ESE,104,1.0,3.0,75,0.00,,---,0.00,VWS V14.01,2013-01-28 18:02:00,
2013-01-28 13:07:00,56.1,48.3,30.36,SE,126,1.0,2.0,75,0.00,,---,0.00,VWS V14.01,2013-01-28 18:07:00,
2013-01-28 13:12:00,56.9,48.3,30.36,NW,325,0.0,6.0,73,0.00,,---,0.00,VWS V14.01,2013-01-28 18:12:00,
2013-01-28 13:17:00,57.8,48.8,30.35,NW,306,0.0,6.0,72,0.00,,---,0.00,VWS V14.01,2013-01-28 18:17:00,
2013-01-28 13:22:00,58.2,48.5,30.35,South,180,0.0,6.0,70,0.00,,---,0.00,VWS V14.01,2013-01-28 18:22:00,
2013-01-28 13:27:00,58.2,48.5,30.34,ENE,64,0.0,6.0,70,0.00,,---,0.00,VWS V14.01,2013-01-28 18:27:00,
2013-01-28 13:32:00,58.2,48.8,30.33,WSW,238,1.0,6.0,71,0.00,,---,0.00,VWS V14.01,2013-01-28 18:32:00,
2013-01-28 13:37:00,58.3,48.6,30.33,North,9,1.0,3.0,70,0.00,,---,0.00,VWS V14.01,2013-01-28 18:37:00,
2013-01-28 13:42:00,58.6,49.6,30.33,WSW,250,2.0,3.0,72,0.00,,---,0.00,VWS V14.01,2013-01-28 18:42:00,
2013-01-28 13:47:00,59.1,49.3,30.33,West,266,1.0,5.0,70,0.00,,---,0.00,VWS V14.01,2013-01-28 18:47:00,
2013-01-28 13:52:00,59.6,49.8,30.32,South,178,2.0,5.0,70,0.00,,---,0.00,VWS V14.01,2013-01-28 18:52:00,
2013-01-28 13:57:00,59.7,49.9,30.32,North,355,2.0,5.0,70,0.00,,---,0.00,VWS V14.01,2013-01-28 18:57:00,
2013-01-28 14:02:00,59.8,50.0,30.32,ESE,109,1.0,5.0,70,0.00,,---,0.00,VWS V14.01,2013-01-28 19:02:00,
2013-01-28 14:07:00,59.5,49.7,30.32,West,267,0.0,2.0,70,0.00,,---,0.00,VWS V14.01,2013-01-28 19:07:00,
2013-01-28 14:12:00,59.1,49.3,30.31,NE,36,1.0,2.0,70,0.00,,---,0.00,VWS V14.01,2013-01-28 19:12:00,
2013-01-28 14:17:00,58.9,50.3,30.31,West,275,1.0,3.0,73,0.00,,---,0.00,VWS V14.01,2013-01-28 19:17:00,
2013-01-28 14:22:00,58.7,49.7,30.31,West,281,0.0,3.0,72,0.00,,---,0.00,VWS V14.01,2013-01-28 19:22:00,
2013-01-28 14:27:00,58.7,49.7,30.31,East,89,1.0,3.0,72,0.00,,---,0.00,VWS V14.01,2013-01-28 19:27:00,
2013-01-28 14:32:00,58.7,49.7,30.30,East,89,0.0,3.0,72,0.00,,---,0.00,VWS V14.01,2013-01-28 19:32:00,
2013-01-28 14:37:00,58.5,49.5,30.30,East,79,1.0,1.0,72,0.00,,---,0.00,VWS V14.01,2013-01-28 19:37:00,
2013-01-28 14:42:00,58.3,49.7,30.30,SE,130,0.0,2.0,73,0.00,,---,0.00,VWS V14.01,2013-01-28 19:42:00,
2013-01-28 14:47:00,58.1,49.5,30.30,SE,130,1.0,2.0,73,0.00,,---,0.00,VWS V14.01,2013-01-28 19:47:00,
2013-01-28 14:52:00,58.1,49.5,30.30,SE,130,1.0,2.0,73,0.00,,---,0.00,VWS V14.01,2013-01-28 19:52:00,
2013-01-28 14:57:00,58.3,50.1,30.29,SE,130,0.0,2.0,74,0.00,,---,0.00,VWS V14.01,2013-01-28 19:57:00,
2013-01-28 15:02:00,58.5,49.9,30.29,NE,51,1.0,2.0,73,0.00,,---,0.00,VWS V14.01,2013-01-28 20:02:00,
2013-01-28 15:07:00,58.6,50.0,30.29,NE,51,0.0,1.0,73,0.00,,---,0.00,VWS V14.01,2013-01-28 20:07:00,
2013-01-28 15:12:00,58.7,50.1,30.29,SE,136,1.0,2.0,73,0.00,,---,0.00,VWS V14.01,2013-01-28 20:12:00,
2013-01-28 15:17:00,58.8,50.2,30.29,SE,136,1.0,2.0,73,0.00,,---,0.00,VWS V14.01,2013-01-28 20:17:00,
2013-01-28 15:22:00,58.7,50.1,30.30,SSE,149,0.0,2.0,73,0.00,,---,0.00,VWS V14.01,2013-01-28 20:22:00,
2013-01-28 15:27:00,58.5,49.9,30.29,SSE,150,0.0,2.0,73,0.00,,---,0.00,VWS V14.01,2013-01-28 20:27:00,
2013-01-28 15:32:00,58.4,50.2,30.29,WNW,287,2.0,3.0,74,0.00,,---,0.00,VWS V14.01,2013-01-28 20:32:00,
2013-01-28 15:37:00,58.3,50.1,30.29,SSW,194,0.0,3.0,74,0.00,,---,0.00,VWS V14.01,2013-01-28 20:37:00,
2013-01-28 15:42:00,58.2,50.0,30.29,West,265,1.0,3.0,74,0.00,,---,0.00,VWS V14.01,2013-01-28 20:42:00,
2013-01-28 15:47:00,58.1,50.2,30.29,SSW,213,1.0,3.0,75,0.00,,---,0.00,VWS V14.01,2013-01-28 20:47:00,
2013-01-28 15:52:00,58.1,50.6,30.29,SW,227,1.0,3.0,76,0.00,,---,0.00,VWS V14.01,2013-01-28 20:52:00,
2013-01-28 15:57:00,58.2,50.7,30.29,SW,230,0.0,3.0,76,0.00,,---,0.00,VWS V14.01,2013-01-28 20:57:00,
2013-01-28 16:02:00,58.2,50.3,30.29,SW,233,1.0,3.0,75,0.00,,---,0.00,VWS V14.01,2013-01-28 21:02:00,
2013-01-28 16:07:00,58.3,50.4,30.29,SW,233,1.0,1.0,75,0.00,,---,0.00,VWS V14.01,2013-01-28 21:07:00,
2013-01-28 16:12:00,58.3,50.4,30.29,SW,236,1.0,3.0,75,0.00,,---,0.00,VWS V14.01,2013-01-28 21:12:00,
2013-01-28 16:17:00,58.4,50.9,30.29,WSW,248,0.0,3.0,76,0.00,,---,0.00,VWS V14.01,2013-01-28 21:17:00,
2013-01-28 16:22:00,58.6,50.7,30.28,WSW,248,2.0,3.0,75,0.00,,---,0.00,VWS V14.01,2013-01-28 21:22:00,
2013-01-28 16:27:00,59.0,51.1,30.28,SW,225,0.0,3.0,75,0.00,,---,0.00,VWS V14.01,2013-01-28 21:27:00,
2013-01-28 16:32:00,59.0,50.7,30.28,SW,225,0.0,3.0,74,0.00,,---,0.00,VWS V14.01,2013-01-28 21:32:00,
2013-01-28 16:37:00,59.0,50.7,30.28,SSW,209,1.0,3.0,74,0.00,,---,0.00,VWS V14.01,2013-01-28 21:37:00,
2013-01-28 16:42:00,59.0,50.7,30.28,WSW,237,2.0,3.0,74,0.00,,---,0.00,VWS V14.01,2013-01-28 21:42:00,
2013-01-28 16:48:00,59.0,50.7,30.28,WSW,240,1.0,3.0,74,0.00,,---,0.00,VWS V14.01,2013-01-28 21:48:00,
2013-01-28 16:52:00,59.0,50.7,30.28,WSW,240,0.0,3.0,74,0.00,,---,0.00,VWS V14.01,2013-01-28 21:52:00,
2013-01-28 16:57:00,58.6,50.7,30.28,WSW,240,0.0,3.0,75,0.00,,---,0.00,VWS V14.01,2013-01-28 21:57:00,
2013-01-28 17:02:00,58.2,50.3,30.28,WSW,240,0.0,3.0,75,0.00,,---,0.00,VWS V14.01,2013-01-28 22:02:00,
2013-01-28 17:08:00,58.0,50.5,30.28,WSW,240,0.0,0.0,76,0.00,,---,0.00,VWS V14.01,2013-01-28 22:08:00,
2013-01-28 17:13:00,57.7,50.5,30.29,WSW,240,0.0,1.0,77,0.00,,---,0.00,VWS V14.01,2013-01-28 22:13:00,
2013-01-28 17:18:00,57.6,50.5,30.28,WSW,240,1.0,2.0,77,0.00,,---,0.00,VWS V14.01,2013-01-28 22:18:00,
2013-01-28 17:23:00,57.4,50.3,30.28,SW,219,1.0,2.0,77,0.00,,---,0.00,VWS V14.01,2013-01-28 22:23:00,
2013-01-28 17:27:00,57.2,50.4,30.28,SW,227,0.0,2.0,78,0.00,,---,0.00,VWS V14.01,2013-01-28 22:27:00,
2013-01-28 17:32:00,57.0,50.2,30.29,SW,227,0.0,2.0,78,0.00,,---,0.00,VWS V14.01,2013-01-28 22:32:00,
2013-01-28 17:37:00,56.7,49.9,30.29,SW,227,0.0,1.0,78,0.00,,---,0.00,VWS V14.01,2013-01-28 22:37:00,
2013-01-28 17:42:00,56.5,50.1,30.29,SW,227,0.0,1.0,79,0.00,,---,0.00,VWS V14.01,2013-01-28 22:42:00,
2013-01-28 17:47:00,56.3,49.9,30.29,SW,227,0.0,1.0,79,0.00,,---,0.00,VWS V14.01,2013-01-28 22:47:00,
2013-01-28 17:53:00,55.9,49.5,30.29,SW,227,1.0,1.0,79,0.00,,---,0.00,VWS V14.01,2013-01-28 22:53:00,
2013-01-28 17:58:00,55.3,48.9,30.29,SW,227,0.0,1.0,79,0.00,,---,0.00,VWS V14.01,2013-01-28 22:58:00,
2013-01-28 18:03:00,54.9,48.9,30.29,SW,227,1.0,1.0,80,0.00,,---,0.00,VWS V14.01,2013-01-28 23:03:00,
2013-01-28 18:07:00,54.3,48.3,30.30,South,180,0.0,2.0,80,0.00,,---,0.00,VWS V14.01,2013-01-28 23:07:00,
2013-01-28 18:13:00,53.9,48.2,30.30,South,180,0.0,2.0,81,0.00,,---,0.00,VWS V14.01,2013-01-28 23:13:00,
2013-01-28 18:18:00,53.4,47.7,30.30,South,180,0.0,2.0,81,0.00,,---,0.00,VWS V14.01,2013-01-28 23:18:00,
2013-01-28 18:22:00,52.9,47.6,30.30,South,181,0.0,2.0,82,0.00,,---,0.00,VWS V14.01,2013-01-28 23:22:00,
2013-01-28 18:27:00,52.3,47.3,30.30,South,181,0.0,2.0,83,0.00,,---,0.00,VWS V14.01,2013-01-28 23:27:00,
2013-01-28 18:32:00,51.9,47.2,30.30,South,180,0.0,2.0,84,0.00,,---,0.00,VWS V14.01,2013-01-28 23:32:00,
2013-01-28 18:37:00,51.7,47.0,30.30,South,181,0.0,1.0,84,0.00,,---,0.00,VWS V14.01,2013-01-28 23:37:00,
2013-01-28 18:42:00,51.6,47.2,30.30,South,180,0.0,1.0,85,0.00,,---,0.00,VWS V14.01,2013-01-28 23:42:00,
2013-01-28 18:47:00,51.5,47.2,30.30,South,180,0.0,1.0,85,0.00,,---,0.00,VWS V14.01,2013-01-28 23:47:00,
2013-01-28 18:53:00,51.4,47.4,30.31,South,180,0.0,1.0,86,0.00,,---,0.00,VWS V14.01,2013-01-28 23:53:00,
2013-01-28 18:58:00,51.3,47.3,30.30,South,181,0.0,1.0,86,0.00,,---,0.00,VWS V14.01,2013-01-28 23:58:00,
2013-01-28 19:03:00,51.2,47.2,30.31,South,181,0.0,1.0,86,0.00,,---,0.00,VWS V14.01,2013-01-29 00:03:00,
2013-01-28 19:08:00,51.1,47.1,30.31,South,181,0.0,1.0,86,0.00,,---,0.00,VWS V14.01,2013-01-29 00:08:00,
2013-01-28 19:13:00,50.9,46.9,30.31,South,180,0.0,1.0,86,0.00,,---,0.00,VWS V14.01,2013-01-29 00:13:00,
2013-01-28 19:18:00,50.7,46.7,30.31,South,180,0.0,1.0,86,0.00,,---,0.00,VWS V14.01,2013-01-29 00:18:00,
2013-01-28 19:23:00,50.4,46.7,30.31,South,181,1.0,1.0,87,0.00,,---,0.00,VWS V14.01,2013-01-29 00:23:00,
2013-01-28 19:28:00,50.1,46.4,30.31,South,181,0.0,1.0,87,0.00,,---,0.00,VWS V14.01,2013-01-29 00:28:00,
2013-01-28 19:33:00,50.0,46.6,30.31,South,181,1.0,1.0,88,0.00,,---,0.00,VWS V14.01,2013-01-29 00:33:00,
2013-01-28 19:38:00,50.0,46.6,30.31,South,181,0.0,1.0,88,0.00,,---,0.00,VWS V14.01,2013-01-29 00:38:00,
2013-01-28 19:43:00,50.0,46.6,30.31,South,181,0.0,1.0,88,0.00,,---,0.00,VWS V14.01,2013-01-29 00:43:00,
2013-01-28 19:48:00,50.1,46.7,30.31,South,181,0.0,1.0,88,0.00,,---,0.00,VWS V14.01,2013-01-29 00:48:00,
2013-01-28 19:53:00,50.1,46.7,30.31,South,180,0.0,1.0,88,0.00,,---,0.00,VWS V14.01,2013-01-29 00:53:00,
2013-01-28 19:58:00,50.1,46.7,30.31,South,181,0.0,1.0,88,0.00,,---,0.00,VWS V14.01,2013-01-29 00:58:00,
2013-01-28 20:03:00,50.0,46.6,30.31,South,180,0.0,1.0,88,0.00,,---,0.00,VWS V14.01,2013-01-29 01:03:00,
2013-01-28 20:08:00,50.0,46.6,30.31,South,181,1.0,1.0,88,0.00,,---,0.00,VWS V14.01,2013-01-29 01:08:00,
2013-01-28 20:13:00,50.1,46.7,30.31,South,180,1.0,1.0,88,0.00,,---,0.00,VWS V14.01,2013-01-29 01:13:00,
2013-01-28 20:18:00,50.2,46.8,30.31,South,180,0.0,1.0,88,0.00,,---,0.00,VWS V14.01,2013-01-29 01:18:00,
2013-01-28 20:23:00,50.3,46.9,30.31,South,181,1.0,1.0,88,0.00,,---,0.00,VWS V14.01,2013-01-29 01:23:00,
2013-01-28 20:28:00,50.4,47.0,30.31,South,181,0.0,1.0,88,0.00,,---,0.00,VWS V14.01,2013-01-29 01:28:00,
2013-01-28 20:33:00,50.5,47.1,30.31,South,181,0.0,1.0,88,0.00,,---,0.00,VWS V14.01,2013-01-29 01:33:00,
2013-01-28 20:38:00,50.4,47.0,30.31,South,180,0.0,1.0,88,0.00,,---,0.00,VWS V14.01,2013-01-29 01:38:00,
2013-01-28 20:43:00,50.5,47.1,30.31,South,180,0.0,1.0,88,0.00,,---,0.00,VWS V14.01,2013-01-29 01:43:00,
2013-01-28 20:48:00,50.4,47.0,30.31,South,180,0.0,1.0,88,0.00,,---,0.00,VWS V14.01,2013-01-29 01:48:00,
2013-01-28 20:53:00,50.4,47.0,30.31,South,181,0.0,1.0,88,0.00,,---,0.00,VWS V14.01,2013-01-29 01:53:00,
2013-01-28 20:58:00,50.3,46.9,30.31,South,181,0.0,1.0,88,0.00,,---,0.00,VWS V14.01,2013-01-29 01:58:00,
2013-01-28 21:03:00,50.4,47.0,30.31,South,181,0.0,1.0,88,0.00,,---,0.00,VWS V14.01,2013-01-29 02:03:00,
2013-01-28 21:08:00,50.4,47.0,30.31,South,180,0.0,0.0,88,0.00,,---,0.00,VWS V14.01,2013-01-29 02:08:00,
2013-01-28 21:13:00,50.4,47.0,30.31,South,180,0.0,1.0,88,0.00,,---,0.00,VWS V14.01,2013-01-29 02:13:00,
2013-01-28 21:18:00,50.3,46.9,30.31,South,181,1.0,2.0,88,0.00,,---,0.00,VWS V14.01,2013-01-29 02:18:00,
2013-01-28 21:23:00,50.3,46.9,30.31,South,181,0.0,2.0,88,0.00,,---,0.00,VWS V14.01,2013-01-29 02:23:00,
2013-01-28 21:28:00,50.3,46.9,30.30,South,181,0.0,2.0,88,0.00,,---,0.00,VWS V14.01,2013-01-29 02:28:00,
2013-01-28 21:33:00,50.3,46.9,30.31,South,181,0.0,2.0,88,0.00,,---,0.00,VWS V14.01,2013-01-29 02:33:00,
2013-01-28 21:38:00,50.3,46.9,30.31,South,181,0.0,2.0,88,0.00,,---,0.00,VWS V14.01,2013-01-29 02:38:00,
2013-01-28 21:43:00,50.3,46.9,30.31,South,180,0.0,2.0,88,0.00,,---,0.00,VWS V14.01,2013-01-29 02:43:00,
2013-01-28 21:48:00,50.3,46.9,30.31,South,180,0.0,2.0,88,0.00,,---,0.00,VWS V14.01,2013-01-29 02:48:00,
2013-01-28 21:53:00,50.2,46.8,30.31,South,181,0.0,2.0,88,0.00,,---,0.00,VWS V14.01,2013-01-29 02:53:00,
2013-01-28 21:58:00,50.1,46.7,30.31,South,180,0.0,2.0,88,0.00,,---,0.00,VWS V14.01,2013-01-29 02:58:00,
2013-01-28 22:03:00,50.0,46.6,30.31,South,181,1.0,2.0,88,0.00,,---,0.00,VWS V14.01,2013-01-29 03:03:00,
2013-01-28 22:08:00,49.7,46.3,30.30,South,180,0.0,0.0,88,0.00,,---,0.00,VWS V14.01,2013-01-29 03:08:00,
2013-01-28 22:13:00,49.5,46.1,30.30,South,180,0.0,1.0,88,0.00,,---,0.00,VWS V14.01,2013-01-29 03:13:00,
2013-01-28 22:18:00,49.2,46.1,30.30,South,181,0.0,1.0,89,0.00,,---,0.00,VWS V14.01,2013-01-29 03:18:00,
2013-01-28 22:23:00,48.8,45.7,30.30,South,181,0.0,1.0,89,0.00,,---,0.00,VWS V14.01,2013-01-29 03:23:00,
2013-01-28 22:28:00,48.6,45.5,30.30,South,181,0.0,1.0,89,0.00,,---,0.00,VWS V14.01,2013-01-29 03:28:00,
2013-01-28 22:33:00,48.4,45.6,30.30,South,180,0.0,1.0,90,0.00,,---,0.00,VWS V14.01,2013-01-29 03:33:00,
2013-01-28 22:38:00,48.3,45.5,30.30,South,181,0.0,0.0,90,0.00,,---,0.00,VWS V14.01,2013-01-29 03:38:00,
2013-01-28 22:43:00,48.3,45.8,30.30,South,181,0.0,1.0,91,0.00,,---,0.00,VWS V14.01,2013-01-29 03:43:00,
2013-01-28 22:48:00,48.5,46.0,30.30,South,181,1.0,1.0,91,0.00,,---,0.00,VWS V14.01,2013-01-29 03:48:00,
2013-01-28 22:53:00,48.8,46.3,30.30,South,181,0.0,1.0,91,0.00,,---,0.00,VWS V14.01,2013-01-29 03:53:00,
2013-01-28 22:58:00,48.9,46.4,30.30,South,181,1.0,1.0,91,0.00,,---,0.00,VWS V14.01,2013-01-29 03:58:00,
2013-01-28 23:03:00,49.0,46.2,30.30,South,181,1.0,1.0,90,0.00,,---,0.00,VWS V14.01,2013-01-29 04:03:00,
2013-01-28 23:08:00,49.1,46.3,30.30,South,181,0.0,1.0,90,0.00,,---,0.00,VWS V14.01,2013-01-29 04:08:00,
2013-01-28 23:13:00,49.1,46.3,30.30,South,181,0.0,1.0,90,0.00,,---,0.00,VWS V14.01,2013-01-29 04:13:00,
2013-01-28 23:18:00,49.0,46.2,30.30,South,180,1.0,1.0,90,0.00,,---,0.00,VWS V14.01,2013-01-29 04:18:00,
2013-01-28 23:23:00,48.8,46.0,30.30,South,180,0.0,1.0,90,0.00,,---,0.00,VWS V14.01,2013-01-29 04:23:00,
2013-01-28 23:28:00,48.6,45.8,30.30,South,181,1.0,1.0,90,0.00,,---,0.00,VWS V14.01,2013-01-29 04:28:00,
2013-01-28 23:33:00,48.3,45.5,30.29,South,181,0.0,1.0,90,0.00,,---,0.00,VWS V14.01,2013-01-29 04:33:00,
2013-01-28 23:38:00,47.9,45.1,30.30,South,181,1.0,1.0,90,0.00,,---,0.00,VWS V14.01,2013-01-29 04:38:00,
2013-01-28 23:43:00,47.4,44.6,30.30,South,181,0.0,1.0,90,0.00,,---,0.00,VWS V14.01,2013-01-29 04:43:00,
2013-01-28 23:48:00,47.0,44.2,30.30,South,181,0.0,1.0,90,0.00,,---,0.00,VWS V14.01,2013-01-29 04:48:00,
2013-01-28 23:53:00,46.7,44.2,30.30,South,181,1.0,1.0,91,0.00,,---,0.00,VWS V14.01,2013-01-29 04:53:00,
2013-01-28 23:58:00,46.4,44.2,30.30,South,180,0.0,1.0,92,0.00,,---,0.00,VWS V14.01,2013-01-29 04:58:00,